Hourly Data Report for August 08, 2020

SVARTEVAEG
NUNAVUT
Current Station Operator: ECCC - MSC

81°09'39.000" N
91°48'59.060" W
72.00 m
2403833
71872
NSG

Download Data

Hourly Data (August 2020)
Hourly Data Report for August 8, 2020
TIME Temp Definition
°C
Dew Point Definition
°C
Rel Hum Definition
%
Wind Dir Definition
10's deg

Wind Spd Definition
km/h
Visibility Definition
km
Stn Press Definition
kPa
Hmdx Definition


Wind Chill Definition


Weather Definition


00:00 -2.2 -3.6 90 32 27   100.35   -9 LegendNANA
01:00 -2.2 -3.6 90 32 28   100.39   -9 LegendNANA
02:00 -1.9 -3.1 92 32 28   100.39   -9 LegendNANA
03:00 -1.9 -2.6 94 33 26   100.40   -8 LegendNANA
04:00 -1.8 -2.8 93 33 27   100.44   -8 LegendNANA
05:00 -1.5 -2.4 93 33 28   100.47   -8 LegendNANA
06:00 -1.3 -2.6 91 33 30   100.46   -8 LegendNANA
07:00 -0.9 -2.8 87 34 29   100.45   -8 LegendNANA
08:00 -0.4 -2.9 83 33 37   100.42   -8 LegendNANA
09:00 -0.1 -3.0 81 33 33   100.45   -7 LegendNANA
10:00 -0.2 -2.6 84 33 34   100.44   -7 LegendNANA
11:00 -0.2 -2.2 87 34 32   100.43   -7 LegendNANA
12:00 -0.4 -2.5 86 34 38   100.43   -8 LegendNANA
13:00 -0.2 -2.7 84 34 34   100.47   -7 LegendNANA
14:00 0.2 -2.4 83 34 31   100.51     LegendNANA
15:00 -0.4 -2.5 86 34 37   100.54   -8 LegendNANA
16:00 -0.2 -2.6 84 34 31   100.57   -7 LegendNANA
17:00 0.0 -2.4 84 34 35   100.56   -7 LegendNANA
18:00 0.3 -1.9 85 34 36   100.54     LegendNANA
19:00 0.2 -1.7 87 34 34   100.55     LegendNANA
20:00 0.2 -1.8 87 34 38   100.54     LegendNANA
21:00 -0.2 -1.7 89 34 40   100.53   -8 LegendNANA
22:00 -0.2 -1.8 89 35 40   100.55   -8 LegendNANA
23:00 -0.5 -1.6 92 34 41   100.54   -8 LegendNANA

Notes on Data Quality.

Legend

  • E = Estimated
  • M = Missing
  • NA = Not Available*
  • [empty] = Indicates an unobserved value
Date modified: